Tracy, MN

10:42 AM CST on February 19, 2017 (GMT -0600)
Tracy

Weather History for KTKC - November, 2013

Change the Weather History Date:

Monday, November 18, 2013

  Actual Average (KMML) Record (KMML)
Temperature  
Mean Temperature 34 °F -  
Max Temperature 41 °F 39 °F 66 °F (1999)
Min Temperature 28 °F 23 °F -3 °F (1959)
Degree Days  
Heating Degree Days 30    
Moisture  
Dew Point 25 °F    
Average Humidity 71    
Maximum Humidity 81    
Minimum Humidity 55    
Precipitation  
Precipitation 0.00 in - - ()
Sea Level Pressure  
Sea Level Pressure 30.12 in    
Wind  
Wind Speed 11 mph (NW)    
Max Wind Speed 20 mph    
Max Gust Speed 26 mph    
Visibility 10 miles    
Events      
Averages and records for this station are not official NWS values.
T = Trace of Precipitation, MM = Missing Value Source: NWS Daily Summary

Daily Weather History Graph

Daily Weather History Graph

Search for Another Location

Airport or City:

Trip Planner

Search our weather history database for the weather conditions in past years. The results will help you decide how hot, cold, wet, or windy it might be!

Date:

Astronomy

Nov. 18, 2013 Rise Set
Actual Time 7:22 AM CST 4:52 PM CST
Civil Twilight 6:50 AM CST 5:24 PM CST
Nautical Twilight 6:15 AM CST 5:59 PM CST
Astronomical Twilight 5:41 AM CST 6:33 PM CST
Moon 5:55 PM CST (11/18) 8:12 AM CST (11/18)
Length of Visible Light 10h 33m
Length of Day
9h 30m
Full, 99% of the Moon is Illuminated
Nov 18
Full
Nov 25
Last Quarter
Dec 2
New
Dec 9
First Quarter
Dec 17
Full

Hourly Weather History & Observations

Time (CST) Temp. Windchill Dew Point Humidity Pressure Visibility Wind Dir Wind Speed Gust Speed Precip Events Conditions
12:18 AM 35.2 °F 25.8 °F 28.4 °F 76% 29.94 in 10.0 mi NW 15.0 mph 21.9 mph N/A   Overcast
12:38 AM 35.6 °F 25.5 °F 28.0 °F 74% 29.94 in 10.0 mi NW 17.3 mph 26.5 mph N/A   Overcast
12:58 AM 35.6 °F 25.2 °F 28.0 °F 74% 29.95 in 10.0 mi NW 18.4 mph 21.9 mph N/A   Overcast
1:18 AM 33.8 °F 25.3 °F 27.5 °F 78% 29.95 in 10.0 mi NNW 11.5 mph - N/A   Overcast
1:38 AM 33.4 °F 24.8 °F 27.5 °F 79% 29.96 in 10.0 mi NNW 11.5 mph - N/A   Overcast
1:58 AM 33.1 °F 23.9 °F 27.5 °F 80% 29.96 in 10.0 mi NW 12.7 mph - N/A   Overcast
2:18 AM 32.9 °F 24.1 °F 27.5 °F 81% 29.98 in 10.0 mi NW 11.5 mph - N/A   Overcast
2:38 AM 32.9 °F 25.3 °F 27.5 °F 81% 29.98 in 10.0 mi NW 9.2 mph - N/A   Overcast
2:58 AM 33.3 °F 22.8 °F 26.6 °F 77% 29.99 in 10.0 mi NW 16.1 mph 19.6 mph N/A   Overcast
3:18 AM 32.9 °F 22.0 °F 25.5 °F 74% 29.99 in 10.0 mi NW 17.3 mph 24.2 mph N/A   Overcast
3:38 AM 32.4 °F 21.3 °F 25.2 °F 75% 30.01 in 10.0 mi NW 17.3 mph 25.3 mph N/A   Overcast
3:58 AM 32.2 °F 20.4 °F 24.8 °F 74% 30.02 in 10.0 mi NW 19.6 mph 26.5 mph N/A   Overcast
4:18 AM 32.0 °F 20.8 °F 25.2 °F 76% 30.02 in 10.0 mi NW 17.3 mph 23.0 mph N/A   Overcast
4:37 AM 32.0 °F 20.8 °F 25.2 °F 76% 30.03 in 10.0 mi NW 17.3 mph 23.0 mph N/A   Overcast
4:58 AM 31.1 °F 19.3 °F 24.4 °F 76% 30.04 in 10.0 mi NW 18.4 mph 24.2 mph N/A   Mostly Cloudy
5:18 AM 30.2 °F 20.2 °F 23.9 °F 77% 30.04 in 10.0 mi NW 12.7 mph - N/A   Clear
5:38 AM 29.3 °F 21.5 °F 23.7 °F 80% 30.04 in 10.0 mi WNW 8.1 mph - N/A   Clear
5:58 AM 29.3 °F 20.8 °F 23.7 °F 80% 30.05 in 10.0 mi WNW 9.2 mph - N/A   Clear
6:18 AM 30.2 °F 19.3 °F 23.9 °F 77% 30.06 in 10.0 mi NW 15.0 mph 18.4 mph N/A   Mostly Cloudy
6:38 AM 30.9 °F 21.7 °F 23.9 °F 75% 30.07 in 10.0 mi NW 11.5 mph - N/A   Overcast
6:58 AM 30.6 °F 20.7 °F 23.9 °F 76% 30.08 in 10.0 mi NW 12.7 mph - N/A   Overcast
7:17 AM 30.6 °F 21.8 °F 23.9 °F 76% 30.09 in 10.0 mi NW 10.4 mph - N/A   Overcast
7:37 AM 30.6 °F 21.8 °F 23.7 °F 76% 30.10 in 10.0 mi NW 10.4 mph - N/A   Overcast
7:57 AM 30.7 °F 22.6 °F 23.7 °F 75% 30.11 in 10.0 mi NW 9.2 mph - N/A   Overcast
8:18 AM 31.1 °F 22.4 °F 23.7 °F 74% 30.12 in 10.0 mi NNW 10.4 mph - N/A   Overcast
8:38 AM 31.1 °F 20.5 °F 23.5 °F 74% 30.13 in 10.0 mi NW 15.0 mph - N/A   Overcast
8:57 AM 31.6 °F 22.1 °F 23.7 °F 73% 30.14 in 10.0 mi NW 12.7 mph - N/A   Overcast
9:17 AM 32.0 °F 22.1 °F 23.7 °F 71% 30.14 in 10.0 mi NW 13.8 mph 19.6 mph N/A   Overcast
9:38 AM 32.7 °F 23.9 °F 24.4 °F 72% 30.15 in 10.0 mi NNW 11.5 mph 16.1 mph N/A   Overcast
9:58 AM 33.4 °F 23.9 °F 24.3 °F 69% 30.16 in 10.0 mi NW 13.8 mph - N/A   Mostly Cloudy
10:18 AM 34.5 °F 25.3 °F 24.4 °F 67% 30.16 in 10.0 mi NW 13.8 mph - N/A   Scattered Clouds
10:38 AM 35.4 °F 26.0 °F 24.6 °F 65% 30.18 in 10.0 mi NW 15.0 mph - N/A   Clear
10:58 AM 35.6 °F 27.5 °F 24.6 °F 64% 30.19 in 10.0 mi NW 11.5 mph 17.3 mph N/A   Clear
11:17 AM 36.5 °F 29.2 °F 25.0 °F 63% 30.19 in 10.0 mi NNW 10.4 mph - N/A   Scattered Clouds
11:38 AM 36.9 °F 29.1 °F 25.0 °F 62% 30.18 in 10.0 mi NW 11.5 mph - N/A   Clear
11:58 AM 37.9 °F 32.1 °F 25.3 °F 60% 30.19 in 10.0 mi NW 8.1 mph 16.1 mph N/A   Clear
12:17 PM 38.5 °F 31.1 °F 25.3 °F 59% 30.18 in 10.0 mi NW 11.5 mph - N/A   Clear
12:38 PM 39.0 °F - 25.7 °F 59% 30.17 in 10.0 mi Calm Calm - N/A   Clear
12:58 PM 40.1 °F - 26.1 °F 57% 30.17 in 10.0 mi Calm Calm - N/A   Clear
1:18 PM 39.6 °F - 25.7 °F 58% 30.17 in 10.0 mi Calm Calm - N/A   Clear
1:38 PM 40.8 °F - 25.9 °F 55% 30.17 in 10.0 mi Calm Calm - N/A   Clear
1:57 PM 41.0 °F - 26.2 °F 56% 30.17 in 10.0 mi Calm Calm - N/A   Clear
2:17 PM 41.4 °F - 26.1 °F 55% 30.17 in 10.0 mi Calm Calm - N/A   Clear
2:38 PM 41.4 °F - 26.1 °F 55% 30.17 in 10.0 mi Calm Calm - N/A   Clear
2:57 PM 41.2 °F - 25.9 °F 55% 30.17 in 10.0 mi Calm Calm - N/A   Clear
3:17 PM 41.4 °F - 26.1 °F 55% 30.16 in 10.0 mi Calm Calm - N/A   Clear
3:38 PM 41.2 °F - 26.1 °F 55% 30.16 in 10.0 mi Calm Calm - N/A   Clear
3:58 PM 40.8 °F - 26.2 °F 56% 30.16 in 10.0 mi Calm Calm - N/A   Clear
4:18 PM 39.6 °F - 25.9 °F 58% 30.17 in 10.0 mi Calm Calm - N/A   Clear
4:37 PM 38.1 °F - 25.7 °F 61% 30.17 in 10.0 mi Calm Calm - N/A   Clear
4:57 PM 36.9 °F - 25.5 °F 64% 30.17 in 10.0 mi Calm Calm - N/A   Clear
5:18 PM 34.2 °F - 24.8 °F 69% 30.18 in 10.0 mi Calm Calm - N/A   Clear
5:38 PM 33.4 °F - 25.0 °F 71% 30.18 in 10.0 mi Calm Calm - N/A   Clear
5:57 PM 32.2 °F - 23.9 °F 72% 30.18 in 10.0 mi Calm Calm - N/A   Clear
6:18 PM 32.0 °F - 23.9 °F 72% 30.19 in 10.0 mi Calm Calm - N/A   Clear
6:38 PM 32.0 °F - 23.9 °F 72% 30.19 in 10.0 mi Calm Calm - N/A   Clear
6:57 PM 30.6 °F - 23.7 °F 76% 30.19 in 10.0 mi Calm Calm - N/A   Clear
7:18 PM 29.8 °F - 23.5 °F 77% 30.19 in 10.0 mi Calm Calm - N/A   Clear
7:38 PM 29.3 °F - 23.0 °F 77% 30.19 in 10.0 mi Calm Calm - N/A   Clear
7:57 PM 29.5 °F - 23.0 °F 77% 30.21 in 10.0 mi Calm Calm - N/A   Clear
8:18 PM 30.0 °F - 23.0 °F 75% 30.21 in 10.0 mi Calm Calm - N/A   Clear
8:38 PM 28.2 °F - 22.5 °F 79% 30.20 in 10.0 mi Calm Calm - N/A   Clear
8:58 PM 28.4 °F - 22.6 °F 79% 30.20 in 10.0 mi Calm Calm - N/A   Clear
9:18 PM 29.3 °F - 23.0 °F 77% 30.20 in 10.0 mi Calm Calm - N/A   Clear
9:37 PM 29.5 °F 22.5 °F 23.4 °F 78% 30.20 in 10.0 mi South 6.9 mph - N/A   Clear
9:58 PM 29.5 °F 21.8 °F 23.2 °F 77% 30.20 in 10.0 mi SSE 8.1 mph - N/A   Clear
10:18 PM 29.3 °F 21.5 °F 23.0 °F 77% 30.20 in 10.0 mi South 8.1 mph - N/A   Clear
10:38 PM 30.0 °F 21.7 °F 23.5 °F 77% 30.18 in 10.0 mi South 9.2 mph - N/A   Clear
10:58 PM 30.0 °F 21.1 °F 23.7 °F 77% 30.19 in 10.0 mi South 10.4 mph - N/A   Clear
11:18 PM 30.2 °F 20.2 °F 23.7 °F 77% 30.18 in 10.0 mi South 12.7 mph - N/A   Clear
11:37 PM 30.2 °F 21.3 °F 23.7 °F 77% 30.18 in 10.0 mi South 10.4 mph - N/A   Clear
11:58 PM 29.5 °F 20.4 °F 23.4 °F 78% 30.17 in 10.0 mi South 10.4 mph - N/A   Clear